Showing default

SHIYAN 24C 02, 58651

Orbit data source: Space-Track

SHIYAN 24C 02, 58651 is a payload satellite owned by CASC (CN) in SSO that was launched on Mon, 25 Dec 2023 UTC via a CHANG ZHENG 11 launch vehicle from the South China Sea Launch Area (SCSLA). Payload-class satellites include a variety of spacecraft equipped with specific instruments for various scientific and technological missions. These include communications satellites like Starlink; space stations such as the ISS; scientific satellites like the Hubble; Earth observation satellites from companies like Planet Labs, Umbra, and HawkEye 360; GPS; miniature CubeSats for education and research; and military/defense satellites.

Loading next visibility...
Identifier
58651, 2023-206B
Orbit
SSO
Last TLE update
4 hours ago
Origin
Manufacturer
SECM?
Mission
Operational Defense Technology
Bus & Motor
Unknown
Mass
~80 kg wet, ~80 kg dry
Launch date (UTC)
2023-12-25 (2 years ago)
Launch vehicle
CHANG ZHENG 11
Launch site
South China Sea Launch Area (SCSLA)
Object type
Payload
Rocket body
Debris
Shape & HBR
Box + 2 Pan, 8 m
Radar Cross Section
6.005 m², Medium (>0.1 m² and < 1m²)

Expand to show TLE details & history

TLE from 4 hours ago
0 SHIYAN 24C 02
1 58651U 23206B   25183.69638177  .00002340  00000-0  20829-3 0  9997
2 58651  97.3629 165.4796 0001599 107.1677 252.9721 14.96943733 83002
Epoch: 2025-07-02T16:42Z
TLE epoch observation values (Epoch: 2025-07-02T16:42:47.384Z)
Latitude
-0.00004°
Longitude
-6.1916°
Altitude
579.732 km
Speed
7.57 km/s
True Right ascension
11h 01m 55s
True Declination
0° 00' 00"
Sunlit
Object was in daylight at epoch
Visualization orbit readout
Latitude
-72.87023°
Longitude
18.62816°
Altitude
604.297 km
Speed
7.556 km/s
Apparent Right ascension
19h 17m 32s
Apparent Declination
-68° 56' 04"
Sunlit
Object is in daylight
Visualization observer readout
Local Sidereal Time
08:55:48
Azimuth
163.547° S
Elevation
-58.159°
Doppler factor
1
Orbital elements
Apogee altitude
574.452 km
Perigee altitude
572.229 km
Semi-major axis
6,951.478 km
Eccentricity
0.00016
Inclination
97.3629°
RAAN
165.4796°
Arg. of periapsis
107.1677°
True anomaly
Unknown
Mean anomaly
252.9721°
Eccentric anomaly
Unknown
Mean motion
3.74479 °/min
Orbital period
96.13 mins
BSTAR
0.00020829
Loading maneuver chart data...
Loading SW <> Apogee altitude chart data...
Loading historical data...
Loading historical data...
Loading historical data...
Loading historical data...
Loading historical data...
Loading historical data...
Loading historical data...
Other satellites on launch #206 in the year 2023 (2023-12-25 UTC)

SHIYAN 24C 02 Visibility forecast

Observer location: undefined°, undefined°

Span
Click to sort rows by Start time (UTC) header in descending order
Start Az.
Max El. time (UTC)
Max El. Az.
Max El.
End time (UTC)
End Az.
6 mins2025-07-02 23:15:38.554Z195.614° SSW2025-07-02 23:18:38.554Z275.577° WNW34.437°2025-07-02 23:21:38.554Z331.679° NNW
5 mins2025-07-03 10:57:38.554Z58.958° ENE2025-07-03 10:59:38.554Z105.14° ESE23.671°2025-07-03 11:02:38.554Z153.157° SSE
4 mins2025-07-03 12:32:38.554Z326.071° NNW2025-07-03 12:34:38.554Z285.778° WNW20.91°2025-07-03 12:36:38.554Z249.345° W
|